| time (UTC) | temp F | wind direction | speed MPH | gust MPH | rain 1hr in | rain 24hr in | rain mn in | humidity % | barometer mb |
| 20260905063036 | 67 | 0.0 | 0.0 | 0.00 | 0.00 | 0.00 | 80 | 1014.4 | |
| 20260905062036 | 67 | 0.0 | 0.0 | 0.00 | 0.00 | 0.00 | 79 | 1014.3 | |
| 20260905061036 | 67 | 0.0 | 0.0 | 0.00 | 0.00 | 0.00 | 79 | 1014.4 | |
| 20260905060036 | 68 | 0.0 | 0.0 | 0.00 | 0.00 | 0.00 | 79 | 1014.4 | |
| 20260905055016 | 68 | 0.0 | 0.0 | 0.00 | 0.00 | 0.00 | 79 | 1014.3 | |
| 20260905054036 | 68 | 0.0 | 0.0 | 0.00 | 0.00 | 0.00 | 79 | 1014.2 | |
| 20260905053016 | 68 | 0.0 | 0.0 | 0.00 | 0.00 | 0.00 | 79 | 1014.4 | |
| 20260905052016 | 68 | 0.0 | 0.0 | 0.00 | 0.00 | 0.00 | 79 | 1014.4 | |
| 20260905051036 | 68 | 0.0 | 0.0 | 0.00 | 0.00 | 0.00 | 79 | 1014.3 | |
| 20260905050016 | 68 | 0.0 | 0.0 | 0.00 | 0.00 | 0.00 | 78 | 1014.4 | |
| 20260905045016 | 68 | 0.0 | 0.0 | 0.00 | 0.00 | 0.00 | 78 | 1014.3 | |
| 20260905044015 | 69 | 0.0 | 0.0 | 0.00 | 0.00 | 0.00 | 78 | 1014.1 | |
| 20260905043016 | 69 | 0.0 | 0.0 | 0.00 | 0.00 | 0.00 | 78 | 1014.0 | |
| 20260905042037 | 69 | 0.0 | 0.0 | 0.00 | 0.00 | 0.00 | 77 | 1013.9 | |
| 20260905041015 | 69 | 0.0 | 0.0 | 0.00 | 0.00 | 0.00 | 77 | 1013.8 | |
| 20260905040018 | 69 | 0.0 | 0.0 | 0.00 | 0.00 | 0.00 | 77 | 1013.8 | |
| 20260905035036 | 70 | 0.0 | 2.0 | 0.00 | 0.00 | 0.00 | 76 | 1013.7 | |
| 20260905034015 | 70 | 276 | 1.0 | 3.0 | 0.00 | 0.00 | 0.00 | 76 | 1013.6 |
| 20260905033015 | 70 | 275 | 1.0 | 4.0 | 0.00 | 0.00 | 0.00 | 76 | 1013.4 |
| 20260905032015 | 70 | 270 | 1.0 | 6.0 | 0.00 | 0.00 | 0.00 | 75 | 1013.4 |
| 20260905031016 | 71 | 275 | 2.0 | 6.0 | 0.00 | 0.00 | 0.00 | 75 | 1013.3 |
| 20260905030015 | 71 | 288 | 3.0 | 9.0 | 0.00 | 0.00 | 0.00 | 74 | 1013.1 |
| 20260905025036 | 71 | 269 | 2.0 | 4.0 | 0.00 | 0.00 | 0.00 | 73 | 1013.0 |
| 20260905024015 | 72 | 275 | 3.0 | 7.0 | 0.00 | 0.00 | 0.00 | 73 | 1013.0 |
| 20260905023016 | 72 | 276 | 3.0 | 9.0 | 0.00 | 0.00 | 0.00 | 71 | 1013.0 |
| 20260905022018 | 73 | 271 | 2.0 | 6.0 | 0.00 | 0.00 | 0.00 | 70 | 1012.9 |
| 20260905021015 | 73 | 269 | 3.0 | 6.0 | 0.00 | 0.00 | 0.00 | 70 | 1012.9 |
| 20260905020015 | 74 | 270 | 3.0 | 8.0 | 0.00 | 0.00 | 0.00 | 68 | 1012.9 |
| 20260905015036 | 75 | 282 | 3.0 | 8.0 | 0.00 | 0.00 | 0.00 | 67 | 1012.8 |
| 20260905014056 | 76 | 277 | 3.0 | 8.0 | 0.00 | 0.00 | 0.00 | 65 | 1012.8 |
| 20260905013015 | 76 | 311 | 4.0 | 9.0 | 0.00 | 0.00 | 0.00 | 64 | 1012.6 |
| 20260905012036 | 77 | 294 | 5.0 | 9.0 | 0.00 | 0.00 | 0.00 | 62 | 1012.7 |
| 20260905011016 | 78 | 258 | 3.0 | 8.0 | 0.00 | 0.00 | 0.00 | 61 | 1012.7 |
| 20260905010035 | 78 | 252 | 3.0 | 7.0 | 0.00 | 0.00 | 0.00 | 60 | 1012.7 |
| 20260905005035 | 78 | 273 | 3.0 | 7.0 | 0.00 | 0.00 | 0.00 | 56 | 1012.6 |
| 20260905004035 | 78 | 281 | 4.0 | 8.0 | 0.00 | 0.00 | 0.00 | 54 | 1012.7 |
| 20260905003016 | 79 | 280 | 2.0 | 7.0 | 0.00 | 0.00 | 0.00 | 55 | 1012.7 |
| 20260905002015 | 79 | 292 | 4.0 | 9.0 | 0.00 | 0.00 | 0.00 | 56 | 1012.8 |
| 20260905001037 | 79 | 295 | 4.0 | 11.0 | 0.00 | 0.00 | 0.00 | 56 | 1012.9 |
| 20260905000036 | 80 | 309 | 5.0 | 9.0 | 0.00 | 0.00 | 0.00 | 55 | 1012.9 |
| 20260904235015 | 80 | 263 | 4.0 | 8.0 | 0.00 | 0.00 | 0.00 | 53 | 1012.8 |
| 20260904234015 | 81 | 281 | 5.0 | 10.0 | 0.00 | 0.00 | 0.00 | 52 | 1012.9 |
| 20260904233015 | 81 | 276 | 5.0 | 10.0 | 0.00 | 0.00 | 0.00 | 52 | 1012.9 |
| 20260904232016 | 81 | 277 | 5.0 | 10.0 | 0.00 | 0.00 | 0.00 | 52 | 1012.9 |
| 20260904231055 | 82 | 271 | 4.0 | 10.0 | 0.00 | 0.00 | 0.00 | 52 | 1013.0 |
| 20260904230035 | 82 | 261 | 4.0 | 10.0 | 0.00 | 0.00 | 0.00 | 50 | 1013.1 |
| 20260904225036 | 82 | 246 | 2.0 | 9.0 | 0.00 | 0.00 | 0.00 | 49 | 1013.2 |
| 20260904224015 | 83 | 253 | 3.0 | 9.0 | 0.00 | 0.00 | 0.00 | 49 | 1013.2 |
| 20260904223015 | 83 | 256 | 6.0 | 13.0 | 0.00 | 0.00 | 0.00 | 49 | 1013.3 |
| 20260904222015 | 83 | 257 | 3.0 | 10.0 | 0.00 | 0.00 | 0.00 | 49 | 1013.4 |
| 20260904221018 | 83 | 276 | 5.0 | 12.0 | 0.00 | 0.00 | 0.00 | 48 | 1013.6 |
| 20260904220015 | 84 | 229 | 6.0 | 11.0 | 0.00 | 0.00 | 0.00 | 48 | 1013.6 |
| 20260904215015 | 84 | 224 | 5.0 | 11.0 | 0.00 | 0.00 | 0.00 | 49 | 1013.7 |
| 20260904214015 | 84 | 235 | 4.0 | 11.0 | 0.00 | 0.00 | 0.00 | 47 | 1013.7 |
| 20260904213015 | 85 | 231 | 4.0 | 10.0 | 0.00 | 0.00 | 0.00 | 47 | 1013.8 |
| 20260904212055 | 85 | 263 | 4.0 | 11.0 | 0.00 | 0.00 | 0.00 | 48 | 1013.6 |
| 20260904211015 | 85 | 242 | 5.0 | 11.0 | 0.00 | 0.00 | 0.00 | 49 | 1013.6 |
| 20260904210015 | 84 | 222 | 5.0 | 13.0 | 0.00 | 0.00 | 0.00 | 49 | 1013.6 |
| 20260904205035 | 85 | 207 | 6.0 | 14.0 | 0.00 | 0.00 | 0.00 | 47 | 1013.7 |
| 20260904204015 | 85 | 236 | 4.0 | 11.0 | 0.00 | 0.00 | 0.00 | 49 | 1013.8 |
| 20260904203015 | 85 | 214 | 5.0 | 13.0 | 0.00 | 0.00 | 0.00 | 49 | 1013.6 |
| 20260904202035 | 85 | 212 | 6.0 | 12.0 | 0.00 | 0.00 | 0.00 | 48 | 1013.7 |
| 20260904201015 | 86 | 212 | 6.0 | 13.0 | 0.00 | 0.00 | 0.00 | 47 | 1013.6 |
| 20260904200015 | 86 | 223 | 6.0 | 11.0 | 0.00 | 0.00 | 0.00 | 47 | 1013.7 |
| 20260904195015 | 85 | 249 | 5.0 | 12.0 | 0.00 | 0.00 | 0.00 | 49 | 1013.8 |
| 20260904194015 | 85 | 256 | 4.0 | 9.0 | 0.00 | 0.00 | 0.00 | 48 | 1013.9 |
| 20260904193015 | 85 | 247 | 3.0 | 11.0 | 0.00 | 0.00 | 0.00 | 48 | 1014.0 |
| 20260904192035 | 87 | 218 | 4.0 | 10.0 | 0.00 | 0.00 | 0.00 | 46 | 1014.0 |
| 20260904191017 | 88 | 264 | 4.0 | 9.0 | 0.00 | 0.00 | 0.00 | 46 | 1014.1 |
| 20260904190017 | 88 | 301 | 4.0 | 11.0 | 0.00 | 0.00 | 0.00 | 47 | 1014.3 |
| 20260904185017 | 87 | 290 | 4.0 | 8.0 | 0.00 | 0.00 | 0.00 | 48 | 1014.5 |
| 20260904184018 | 86 | 274 | 5.0 | 11.0 | 0.00 | 0.00 | 0.00 | 49 | 1014.6 |
| 20260904183017 | 86 | 263 | 4.0 | 11.0 | 0.00 | 0.00 | 0.00 | 50 | 1014.6 |
| 20260904182017 | 85 | 274 | 3.0 | 9.0 | 0.00 | 0.00 | 0.00 | 51 | 1014.6 |
| 20260904181017 | 84 | 259 | 3.0 | 10.0 | 0.00 | 0.00 | 0.00 | 51 | 1014.5 |
| 20260904180017 | 84 | 207 | 3.0 | 8.0 | 0.00 | 0.00 | 0.00 | 51 | 1014.5 |
| 20260904175017 | 83 | 270 | 3.0 | 7.0 | 0.00 | 0.00 | 0.00 | 53 | 1014.5 |
| 20260904174037 | 82 | 220 | 4.0 | 8.0 | 0.00 | 0.00 | 0.00 | 54 | 1014.5 |
| 20260904173016 | 82 | 210 | 4.0 | 12.0 | 0.00 | 0.00 | 0.00 | 53 | 1014.6 |
| 20260904172016 | 82 | 278 | 2.0 | 9.0 | 0.00 | 0.00 | 0.00 | 54 | 1014.6 |
| 20260904171017 | 79 | 251 | 1.0 | 7.0 | 0.00 | 0.00 | 0.00 | 57 | 1014.5 |
| 20260904170017 | 79 | 165 | 2.0 | 5.0 | 0.00 | 0.00 | 0.00 | 58 | 1014.6 |
| 20260904165017 | 78 | 216 | 2.0 | 7.0 | 0.00 | 0.00 | 0.00 | 59 | 1014.5 |
| 20260904164017 | 76 | 181 | 4.0 | 7.0 | 0.00 | 0.00 | 0.00 | 62 | 1014.4 |
| 20260904163017 | 76 | 106 | 3.0 | 6.0 | 0.00 | 0.00 | 0.00 | 62 | 1014.4 |
| 20260904161017 | 76 | 193 | 3.0 | 8.0 | 0.00 | 0.00 | 0.00 | 63 | 1014.2 |
| 20260904160016 | 75 | 155 | 2.0 | 6.0 | 0.00 | 0.00 | 0.00 | 64 | 1014.1 |
| 20260904155016 | 75 | 71 | 1.0 | 4.0 | 0.00 | 0.00 | 0.00 | 64 | 1014.2 |
| 20260904154037 | 75 | 51 | 2.0 | 4.0 | 0.00 | 0.00 | 0.00 | 65 | 1014.1 |
| 20260904153017 | 74 | 134 | 2.0 | 5.0 | 0.00 | 0.00 | 0.00 | 66 | 1014.1 |
| 20260904152017 | 74 | 107 | 1.0 | 3.0 | 0.00 | 0.00 | 0.00 | 66 | 1014.0 |
| 20260904151017 | 73 | 0.0 | 0.0 | 0.00 | 0.00 | 0.00 | 68 | 1013.9 | |
| 20260904150016 | 72 | 85 | 1.0 | 4.0 | 0.00 | 0.00 | 0.00 | 68 | 1013.9 |
| 20260904145016 | 71 | 103 | 1.0 | 3.0 | 0.00 | 0.00 | 0.00 | 70 | 1013.9 |
| 20260904144016 | 70 | 0.0 | 0.0 | 0.00 | 0.00 | 0.00 | 71 | 1013.8 | |
| 20260904143017 | 70 | 78 | 1.0 | 3.0 | 0.00 | 0.00 | 0.00 | 72 | 1013.7 |
| 20260904142016 | 69 | 76 | 1.0 | 3.0 | 0.00 | 0.00 | 0.00 | 73 | 1013.8 |
| 20260904141016 | 67 | 0.0 | 0.0 | 0.00 | 0.00 | 0.00 | 76 | 1013.7 | |
| 20260904140036 | 66 | 0.0 | 0.0 | 0.00 | 0.00 | 0.00 | 77 | 1013.7 | |
| 20260904135036 | 66 | 0.0 | 0.0 | 0.00 | 0.00 | 0.00 | 77 | 1013.6 | |
| 20260904134016 | 66 | 80 | 0.0 | 7.0 | 0.00 | 0.00 | 0.00 | 77 | 1013.6 |
| 20260904133016 | 66 | 41 | 2.0 | 5.0 | 0.00 | 0.00 | 0.00 | 77 | 1013.5 |
| 20260904132016 | 66 | 0.0 | 0.0 | 0.00 | 0.00 | 0.00 | 77 | 1013.4 | |
| 20260904131016 | 66 | 0.0 | 0.0 | 0.00 | 0.00 | 0.00 | 77 | 1013.3 | |
| 20260904130016 | 66 | 0.0 | 0.0 | 0.00 | 0.00 | 0.00 | 77 | 1013.2 | |
| 20260904125036 | 66 | 0.0 | 0.0 | 0.00 | 0.00 | 0.00 | 77 | 1013.2 | |
| 20260904124016 | 66 | 0.0 | 0.0 | 0.00 | 0.00 | 0.00 | 77 | 1013.2 | |
| 20260904123016 | 66 | 0.0 | 0.0 | 0.00 | 0.00 | 0.00 | 77 | 1013.1 | |
| 20260904122036 | 66 | 0.0 | 0.0 | 0.00 | 0.00 | 0.00 | 77 | 1013.1 | |
| 20260904121037 | 67 | 0.0 | 0.0 | 0.00 | 0.00 | 0.00 | 76 | 1013.1 | |
| 20260904120037 | 67 | 0.0 | 0.0 | 0.00 | 0.00 | 0.00 | 76 | 1013.1 | |
| 20260904115016 | 67 | 0.0 | 0.0 | 0.00 | 0.00 | 0.00 | 76 | 1013.2 | |
| 20260904114036 | 67 | 0.0 | 0.0 | 0.00 | 0.00 | 0.00 | 76 | 1013.2 | |
| 20260904113016 | 67 | 0.0 | 0.0 | 0.00 | 0.00 | 0.00 | 76 | 1013.2 | |
| 20260904112036 | 67 | 0.0 | 0.0 | 0.00 | 0.00 | 0.00 | 76 | 1013.3 | |
| 20260904111016 | 67 | 0.0 | 0.0 | 0.00 | 0.00 | 0.00 | 77 | 1013.3 | |
| 20260904110016 | 67 | 0.0 | 0.0 | 0.00 | 0.00 | 0.00 | 77 | 1013.2 | |
| 20260904105016 | 67 | 0.0 | 0.0 | 0.00 | 0.00 | 0.00 | 77 | 1013.1 | |
| 20260904104016 | 67 | 0.0 | 1.0 | 0.00 | 0.00 | 0.00 | 77 | 1013.1 | |
| 20260904103016 | 67 | 319 | 0.0 | 3.0 | 0.00 | 0.00 | 0.00 | 77 | 1013.1 |
| 20260904102016 | 67 | 0.0 | 0.0 | 0.00 | 0.00 | 0.00 | 77 | 1013.1 | |
| 20260904101016 | 67 | 0.0 | 0.0 | 0.00 | 0.00 | 0.00 | 77 | 1013.1 | |
| 20260904100016 | 67 | 0.0 | 0.0 | 0.00 | 0.00 | 0.00 | 77 | 1013.2 | |
| 20260904095036 | 67 | 0.0 | 3.0 | 0.00 | 0.00 | 0.00 | 77 | 1013.1 | |
| 20260904094016 | 67 | 317 | 0.0 | 3.0 | 0.00 | 0.00 | 0.00 | 78 | 1013.1 |
| 20260904093016 | 67 | 315 | 0.0 | 3.0 | 0.00 | 0.00 | 0.00 | 78 | 1013.1 |
| 20260904092036 | 67 | 0.0 | 0.0 | 0.00 | 0.00 | 0.00 | 79 | 1013.1 | |
| 20260904091016 | 67 | 0.0 | 0.0 | 0.00 | 0.00 | 0.00 | 79 | 1013.2 | |
| 20260904090036 | 67 | 0.0 | 0.0 | 0.00 | 0.00 | 0.00 | 79 | 1013.2 | |
| 20260904085036 | 67 | 0.0 | 0.0 | 0.00 | 0.00 | 0.00 | 79 | 1013.2 | |
| 20260904084016 | 67 | 0.0 | 0.0 | 0.00 | 0.00 | 0.00 | 79 | 1013.3 | |
| 20260904083056 | 66 | 0.0 | 0.0 | 0.00 | 0.00 | 0.00 | 80 | 1013.3 | |
| 20260904082015 | 66 | 0.0 | 0.0 | 0.00 | 0.00 | 0.00 | 80 | 1013.4 | |
| 20260904081016 | 66 | 0.0 | 0.0 | 0.00 | 0.00 | 0.00 | 81 | 1013.5 | |
| 20260904080016 | 66 | 0.0 | 0.0 | 0.00 | 0.00 | 0.00 | 81 | 1013.5 | |
| 20260904075016 | 66 | 0.0 | 0.0 | 0.00 | 0.00 | 0.00 | 81 | 1013.6 | |
| 20260904074015 | 66 | 0.0 | 0.0 | 0.00 | 0.00 | 0.00 | 81 | 1013.7 | |
| 20260904073016 | 66 | 0.0 | 0.0 | 0.00 | 0.00 | 0.00 | 80 | 1013.6 | |
| 20260904072016 | 66 | 0.0 | 0.0 | 0.00 | 0.00 | 0.00 | 80 | 1013.6 | |
| 20260904071016 | 66 | 0.0 | 0.0 | 0.00 | 0.00 | 0.00 | 79 | 1013.6 | |
| 20260904070015 | 67 | 0.0 | 0.0 | 0.00 | 0.00 | 0.00 | 79 | 1013.5 | |
| 20260904065016 | 67 | 0.0 | 0.0 | 0.00 | 0.00 | 0.00 | 79 | 1013.6 | |
| 20260904064016 | 67 | 320 | 0.0 | 4.0 | 0.00 | 0.00 | 0.00 | 79 | 1013.5 |